Regional Weather Roundup
Issued by NWS

Home | Current Version | Previous Version | Text Only | Print | Product List | Glossary On
Versions: 1 2 3 4 5 6 7 8 9 10 11 12 13 14 15 16 17 18 19 20 21 22 23 24 25 26 27 28 29 30 31 32 33 34 35 36 37 38 39 40 41 42 43 44 45 46 47 48 49 50
000
ASUS43 KBIS 192010
RWRND

NORTH DAKOTA REGIONAL WEATHER ROUNDUP
NATIONAL WEATHER SERVICE BISMARCK ND
300 PM CDT SUN APR 19 2015

NOTE: "FAIR" INDICATES FEW OR NO CLOUDS BELOW 12,000 FEET WITH NO
SIGNIFICANT WEATHER AND/OR OBSTRUCTIONS TO VISIBILITY.


NDZ001>003-009>011-017-192100-
NORTHWEST NORTH DAKOTA

CITY           SKY/WX    TMP DP  RH WIND       PRES   REMARKS
WILLISTON      CLOUDY    49  26  41 N28G39    30.02S
MINOT          CLOUDY    45  32  60 NW26G37   29.88S
MINOT AFB      LGT RAIN  44  36  72 NW21G32   29.88R
$$

NDZ018>021-031>035-040>046-192100-
SOUTHWEST NORTH DAKOTA

CITY           SKY/WX    TMP DP  RH WIND       PRES   REMARKS
BISMARCK       PTSUNNY   48  35  60 NW29G43   29.89R
DICKINSON      CLOUDY    44  29  55 NW29G37   29.96S
GARRISON         N/A     48  32  53 NW32G43   29.88F
HETTINGER ARPT CLOUDY    46  28  49 NW32G39   29.97F
$$

NDZ004>008-012>016-024-026-027-054-192100-
NORTHEAST NORTH DAKOTA

CITY           SKY/WX    TMP DP  RH WIND       PRES   REMARKS
GRAND FORKS    LGT RAIN  42  38  85 NW24G35   29.72R
GRND FRKS AFB  LGT RAIN  41  38  89 NW24G30   29.73R
DEVILS LAKE    PTSUNNY   45  37  76 N21G28    29.76S
$$

NDZ022-023-025-028>030-036>039-047>053-192100-
SOUTHEAST NORTH DAKOTA

CITY           SKY/WX    TMP DP  RH WIND       PRES   REMARKS
FARGO          LGT RAIN  48  41  76 NW20      29.72R
JAMESTOWN      CLOUDY    49  37  63 N25       29.77R
$$



USA.gov is the U.S. government's official web portal to all federal, state and local government web resources and services.